Location: D�pe
(52.6057°N, 8.1808°E)
Time: 13:04:48
(UTC+00:00)

Cosmos 1953 Rocket - Pass Details

Date: 29 October 2020
Orbit: 605 x 634 km, 82.5° (Epoch: 28 November)

Event Time Altitude Azimuth Distance (km) Brightness Sun altitude
Rises 16:30:59 0° 351° (N) 2,904 6.9 -5.0°
Reaches altitude 10° 16:33:15 10° 356° (N) 1,999 6.1 -5.3°
Maximum altitude 16:37:37 57° 76° (ENE) 739 3.7 -5.9°
Drops below altitude 10° 16:41:59 10° 155° (SSE) 2,000 6.1 -6.6°
Sets 16:44:15 0° 159° (SSE) 2,907 6.9 -6.9°
